Precipitable_Water
1.01 1.06 0.96 0.93 0.88 0.88 0.88 0.84 0.82 0.80 0.82 0.82 0.82 0.80 0.77 0.74 0.68 0.62 0.59 0.57 0.55 0.51 0.49 0.42 0.35 0.33 0.32
0.98 0.93 0.90 0.92 0.84 0.81 0.78 0.77 0.75 0.79 0.77 0.78 0.75 0.72 0.67 0.63 0.58 0.55 0.52 0.48 0.42 0.32 0.27 0.27 0.29 0.31 0.32
0.89 0.91 0.87 0.87 0.81 0.77 0.71 0.71 0.73 0.75 0.71 0.66 0.61 0.56 0.52 0.49 0.47 0.44 0.36 0.27 0.25 0.25 0.26 0.27 0.29 0.32 0.33
0.87 0.86 0.80 0.81 0.78 0.67 0.65 0.68 0.62 0.56 0.51 0.46 0.44 0.43 0.40 0.34 0.30 0.28 0.26 0.23 0.24 0.26 0.29 0.31 0.31 0.31 0.32
0.78 0.76 0.74 0.73 0.66 0.65 0.65 0.56 0.50 0.46 0.41 0.35 0.30 0.26 0.24 0.26 0.25 0.24 0.24 0.24 0.26 0.30 0.32 0.33 0.32 0.32 0.32
0.72 0.72 0.71 0.67 0.67 0.67 0.55 0.45 0.37 0.39 0.30 0.25 0.25 0.22 0.23 0.24 0.25 0.26 0.28 0.30 0.32 0.32 0.33 0.34 0.34 0.32 0.32
0.72 0.71 0.66 0.67 0.66 0.56 0.45 0.38 0.31 0.29 0.26 0.21 0.24 0.22 0.25 0.27 0.30 0.30 0.31 0.31 0.31 0.33 0.34 0.35 0.34 0.33 0.33
0.71 0.68 0.68 0.67 0.52 0.40 0.33 0.29 0.29 0.28 0.27 0.18 0.25 0.24 0.27 0.29 0.33 0.32 0.31 0.32 0.35 0.35 0.36 0.34 0.34 0.34 0.35
0.65 0.65 0.57 0.40 0.34 0.31 0.26 0.25 0.23 0.23 0.27 0.23 0.25 0.26 0.29 0.29 0.32 0.33 0.32 0.33 0.37 0.38 0.36 0.35 0.34 0.35 0.36
0.50 0.38 0.35 0.34 0.32 0.29 0.27 0.23 0.22 0.22 0.28 0.25 0.26 0.27 0.24 0.32 0.33 0.33 0.33 0.34 0.37 0.36 0.35 0.35 0.36 0.35 0.34
0.28 0.31 0.32 0.32 0.31 0.32 0.31 0.27 0.25 0.26 0.33 0.31 0.29 0.29 0.28 0.28 0.31 0.34 0.35 0.37 0.37 0.35 0.34 0.35 0.35 0.36 0.32
0.29 0.28 0.29 0.30 0.31 0.31 0.31 0.31 0.34 0.32 0.35 0.34 0.31 0.31 0.30 0.29 0.29 0.35 0.36 0.38 0.37 0.32 0.33 0.33 0.33 0.32 0.32
0.28 0.29 0.30 0.32 0.33 0.32 0.32 0.34 0.35 0.35 0.37 0.37 0.36 0.36 0.36 0.33 0.32 0.34 0.35 0.37 0.36 0.31 0.30 0.28 0.28 0.27 0.22
0.30 0.31 0.33 0.33 0.32 0.33 0.32 0.33 0.33 0.34 0.39 0.41 0.42 0.41 0.39 0.39 0.38 0.36 0.37 0.34 0.33 0.28 0.27 0.26 0.24 0.24 0.22
0.33 0.33 0.34 0.35 0.35 0.36 0.36 0.35 0.34 0.35 0.37 0.41 0.44 0.45 0.44 0.42 0.38 0.37 0.36 0.35 0.30 0.25 0.24 0.21 0.22 0.22 0.22
0.35 0.35 0.35 0.35 0.35 0.36 0.36 0.35 0.33 0.34 0.35 0.37 0.39 0.41 0.41 0.41 0.43 0.37 0.36 0.34 0.28 0.25 0.24 0.20 0.19 0.22 0.23
0.33 0.34 0.35 0.36 0.36 0.35 0.35 0.35 0.34 0.35 0.36 0.38 0.38 0.40 0.38 0.36 0.38 0.41 0.36 0.35 0.28 0.24 0.23 0.20 0.18 0.20 0.23
Wind_Speed
32 31 30 30 30 29 28 26 24 22 21 20 19 19 18 17 17 17 17 17 18 18 19 19 20 20 21
31 31 32 31 30 28 26 24 23 21 20 18 17 16 15 16 17 17 17 18 18 18 19 20 20 21 20
30 31 30 30 28 26 23 21 20 18 16 16 16 16 17 17 17 17 18 18 18 18 19 19 19 19 19
28 27 27 26 25 23 21 19 18 17 17 16 17 17 18 18 18 18 18 17 17 17 17 18 19 19 20
28 28 26 24 23 20 19 18 17 17 17 17 18 18 17 17 17 16 16 15 15 16 17 18 20 21 21
28 27 26 24 22 20 18 17 17 18 17 17 17 16 16 16 15 14 13 14 16 17 18 20 21 22 23
27 26 24 22 21 20 18 17 17 16 16 16 16 15 15 14 13 13 15 17 18 19 21 22 22 23 24
25 23 22 20 19 19 18 17 16 16 16 15 15 14 13 13 14 15 17 18 19 20 21 21 23 26 28
20 19 19 18 18 17 16 16 15 15 15 14 14 13 14 15 16 17 18 18 19 20 22 24 27 29 30
18 18 17 16 16 16 16 15 14 14 14 13 13 13 14 15 16 17 18 19 21 23 24 26 28 31 33
18 17 16 16 15 15 15 15 14 14 13 13 13 14 14 16 17 18 19 21 23 24 25 27 30 32 34
17 17 16 16 15 14 14 14 14 14 14 14 14 15 16 18 19 20 21 23 24 25 26 28 30 33 35
17 17 16 16 15 14 14 14 14 14 15 16 16 17 18 19 20 21 23 23 25 24 26 30 31 33 33
17 17 16 16 16 16 15 15 15 16 16 17 18 18 20 21 22 23 24 23 24 26 28 29 31 32 33
18 17 17 17 17 16 16 16 16 16 17 17 18 20 21 22 23 24 24 25 25 26 28 29 30 32 33
18 18 18 18 17 17 17 17 18 18 18 19 19 20 22 23 24 24 24 25 25 26 28 29 30 32 33
20 20 20 19 19 19 19 20 20 20 21 21 21 22 23 23 24 24 25 25 26 27 28 30 31 32 33
Wind_Direction
281 284 286 289 291 291 288 286 284 282 280 278 277 276 274 276 278 280 283 286 288 290 291 293 294 296 296
279 281 285 286 288 288 285 281 280 280 277 275 274 273 274 277 279 281 284 286 288 289 292 294 295 296 296
277 281 284 284 284 283 279 279 277 275 270 272 271 274 277 279 279 282 285 287 288 291 294 296 297 297 295
276 278 283 282 279 276 275 273 270 267 270 271 273 277 278 278 280 283 284 286 288 291 295 298 299 298 296
274 278 279 278 274 271 269 267 264 268 269 273 276 278 278 279 280 281 281 284 288 292 296 299 301 300 298
270 273 271 271 267 266 262 261 265 266 271 275 276 276 279 279 278 278 280 284 290 293 297 300 301 301 299
268 268 266 264 262 258 256 258 261 267 272 275 275 276 277 274 274 278 283 288 291 294 297 299 301 301 301
264 262 260 257 256 253 252 256 262 267 270 272 274 273 273 272 275 281 287 291 294 297 298 300 302 302 303
258 254 255 254 248 248 250 255 263 264 267 270 271 271 273 275 279 284 290 293 296 298 300 302 304 305 304
252 251 252 246 246 248 251 254 259 264 264 267 269 272 277 278 283 287 290 295 298 300 301 304 306 307 306
246 247 243 244 245 248 251 253 256 263 265 265 269 272 277 283 286 288 293 297 300 301 303 305 308 309 309
242 241 240 242 246 248 250 253 257 261 261 266 271 274 280 286 288 290 294 299 300 302 304 307 309 311 311
241 239 241 244 244 248 252 255 260 263 265 270 273 277 281 285 289 293 298 299 302 303 307 309 311 313 314
239 240 243 244 246 251 253 258 262 266 270 272 275 279 283 285 288 291 295 298 301 304 308 310 312 314 315
239 241 244 246 250 252 255 259 263 268 272 276 278 281 285 288 290 291 294 297 300 304 308 311 313 315 316
243 244 245 248 252 253 256 260 264 269 274 278 282 285 289 290 287 290 293 297 301 305 308 311 313 316 317
246 247 248 252 254 255 258 262 266 271 276 279 282 285 289 291 293 291 292 297 301 304 307 311 313 316 318